Regional Weather Roundup
Issued by NWS Charleston, SC

Current Version | Previous Version | Graphics & Text | Print | Product List | Glossary On
Versions: 1 2 3 4 5 6 7 8 9 10 11 12 13 14 15 16 17 18 19 20 21 22 23 24 25 26 27 28 29 30 31 32 33 34 35 36 37 38 39 40 41 42 43 44 45 46 47 48 49 50
000 ASUS42 KCHS 270210 RWRCHS REGIONAL WEATHER ROUNDUP NATIONAL WEATHER SERVICE CHARLESTON SC 900 PM EST MON JAN 26 2015 NOTE: "FAIR" INDICATES FEW OR NO CLOUDS BELOW 12,000 FEET WITH NO SIGNIFICANT WEATHER AND/OR OBSTRUCTIONS TO VISIBILITY. NOT ALL STATIONS ARE QUALITY CONTROLLED BY THE NATIONAL WEATHER SERVICE. USE DATA WITH CAUTION...ESPECIALLY DEWPOINT OBSERVATIONS. SCZ027-030-031-034>040-042>050-270300- ...SOUTHEAST SOUTH CAROLINA... CITY SKY/WX TMP DP RH WIND PRES REMARKS N CHARLESTON PTCLDY 49 36 61 W12 29.77R WATERFRONT PRK N/A 50 N/A N/A W10G21 N/A MOUNT PLEASANT FAIR N/A N/A N/A W13G21 29.75R PINOPOLIS NOT AVBL MONCKS CORNER MOCLDY 50 36 57 W7G20 29.75R SUMMERVILLE NOT AVBL BEAUFORT MCAS PTCLDY 46 32 58 W18G28 29.83R BEAUFORT ARPT MOCLDY 46 34 61 W20G32 29.82R HILTON HEAD IS CLOUDY 48 36 61 SW10G16 29.83R WALTERBORO CLEAR 46 32 57 W15G22 29.80R ALLENDALE FAIR 43 32 65 VRB7 29.82R ...SOUTHERN MIDLANDS AND PEE DEE... CITY SKY/WX TMP DP RH WIND PRES REMARKS GEORGETOWN NOT AVBL KINGSTREE NOT AVBL ORANGEBURG CLEAR 45 32 60 W15G23 29.78R BARNWELL FAIR 43 32 65 W12G20 29.81S AIKEN FAIR 41 32 70 W12G20 29.83S MANNING NOT AVBL COLUMBIA CLEAR 45 33 63 W13 29.77R SUMTER CLOUDY 48 31 52 W12G26 29.73R FLORENCE CLOUDY 48 39 71 NW6 29.70R MYRTLE BEACH MOCLDY 48 41 76 NW10 29.71R N MYRTLE BEACH CLOUDY 48 42 80 VRB6 29.68R $$ GAZ063-065-086>088-099>101-113>116-118-119-134>141-150-270300- ...SOUTHEAST GEORGIA... CITY SKY/WX TMP DP RH WIND PRES REMARKS SAVANNAH ARPT CLOUDY 47 32 56 W16G28 29.85R HUNTER AAF CLOUDY 48 34 57 W13G22 29.83R FORT STEWART CLOUDY 47 33 59 NW14G28 29.87R STATESBORO CLEAR 42 32 67 NW16G23 29.87S SYLVANIA CLEAR 43 33 69 NW14 29.86R CLAXTON FAIR 43 34 70 NW15G25 29.89R ...CSRA...CENTRAL AND FAR SOUTHEAST GEORGIA... CITY SKY/WX TMP DP RH WIND PRES REMARKS THOMSON CLEAR 40 32 73 W8 29.91R WCI 35 AUGUSTA-BUSH CLEAR 41 29 62 NW15 29.84R AUGUSTA-DANIEL CLEAR 42 29 59 W10 29.84R SWAINSBORO FAIR 41 25 52 W9G20 29.89F VIDALIA CLEAR 43 34 70 NW9G17 29.91R EASTMAN FAIR 40 32 71 NW10 29.97R WCI 34 HAZLEHURST FAIR 44 34 68 W6 29.92S ALMA CLEAR 45 32 60 NW13 29.92R WAYCROSS CLEAR 48 37 65 NW12G21 29.92R JESUP CLOUDY 50 37 62 NW17 29.90R BAXLEY FAIR 45 34 65 NW15G23 29.92R BRUNSWICK MOCLDY 50 34 53 W15G29 29.89R SAINT SIMONS CLOUDY 50 36 58 W13G22 29.88R $$ SCZ027-028-034-036>038-045-046-048>050-GAZ119-141-270300- ...LAKE AND SUPPLEMENTAL COASTAL OBSERVATIONS... STATION/POSITION TIME TEMP WIND PRES WAVE SWELL AIR SEA DIR/SP/G HT/PER HT/PER/DIR (UTC) (F) (DEG/KT/KT) (MB) (FT/S) (FT/S/D) UPR LAKE MARION NOT AVBL WINYAH BAY 0100 48 260/ 3 1004.0S LAKE MURRAY 0100 48 300/ 6/ 16 1007.8R ACE BASIN NERRS NOT AVBL FORT PULASKI 0200 50 53 1010.3R SAPELO ISLAND 0100 50 280/ 16 1011.0R $$ ANZ835-935-AMZ111-154-330-350-352-354-370-450-454-472-270300- ...C-MAN AND BUOY OBSERVATIONS... STATION/POSITION TIME TEMP WIND PRES WAVE SWELL AIR SEA DIR/SP/G HT/PER HT/PER/DIR (UTC) (F) (DEG/KT/KT) (MB) (FT/S) (FT/S/D) BUOY 41004 0200 56 68 280/ 27/ 35 1005.5R 7/ 7 2/13 BUOY 41008 0200 51 55 290/ 23/ 29 1010.2R 4/ 4 FOLLY BEACH CMAN 0100 50 260/ 9/ 13 1007.6R CAPERS NEARSHORE 0100 53 280/ 19/ 23 N/A FRIPP NEARSHORE 0100 52 300/ 21/ 25 N/A STATION/POSITION TIME TEMP WIND PRES WAVE SWELL AIR SEA DIR/SP/G HT/PER HT/PER/DIR (UTC) (F) (DEG/KT/KT) (MB) (FT/S) (FT/S/D) 5E ST. MARYS GA 0200 58 N/A 2/ 3 FRYING PAN BUOY 0200 53 66 310/ 17/ 21 1004.0R 6/ 6 BUOY 41025 0200 52 71 330/ 21/ 27 999.4F CAPE LOOKOUT NC 0100 49 310/ 13/ 15 1001.7R BUOY 41002 0123 64 72 270/ 27/ 33 1001.5R 12/ 9 7/250/ 9 BUOY 41010 0200 66 76 290/ 23/ 31 1009.3R 12/ 8 ST AUGUSTINE FL 0200 50 310/ 9/ 11 1013.0R $$

USA.gov is the U.S. government's official web portal to all federal, state and local government web resources and services.